This is the latest recevied weather packets stored in our database for station/object KF0JHJ. If no packets are shown the sender has not sent any weather packets the latest 10 day(s).
| Time | Temp. | Humidity | Pressure | Rain* | Wind** | Luminosity | Snow |
|---|---|---|---|---|---|---|---|
| 1777462638 | 0.56° C | 86% | 1016.8 hPa | - | - | 7 W/m² | - |
| 1777462333 | 0.56° C | 86% | 1016.8 hPa | - | - | 6 W/m² | - |
| 1777462029 | 0° C | 85% | 1016.7 hPa | - | - | 5 W/m² | - |
| 1777461727 | 0.56° C | 85% | 1016.8 hPa | - | - | 4 W/m² | - |
| 1777461421 | 0.56° C | 83% | 1016.8 hPa | - | - | 2 W/m² | - |
| 1777461118 | 0.56° C | 83% | 1016.3 hPa | - | - | 0 W/m² | - |
| 1777460813 | 0.56° C | 82% | 1016.6 hPa | - | - | 0 W/m² | - |
| 1777460509 | 1.11° C | 82% | 1016.6 hPa | - | - | 0 W/m² | - |
| 1777460205 | 1.11° C | 80% | 1016.7 hPa | - | - | 0 W/m² | - |
| 1777459903 | 1.11° C | 80% | 1016.2 hPa | - | - | 0 W/m² | - |
| 1777459599 | 1.67° C | 79% | 1016.3 hPa | - | - | 0 W/m² | - |
| 1777459296 | 1.67° C | 78% | 1016.5 hPa | - | - | 0 W/m² | - |
| 1777458994 | 1.67° C | 78% | 1016.5 hPa | - | - | 0 W/m² | - |
| 1777458691 | 1.67° C | 78% | 1016.3 hPa | - | - | 0 W/m² | - |
| 1777458387 | 1.67° C | 77% | 1016.3 hPa | - | - | 0 W/m² | - |
| 1777458083 | 1.67° C | 77% | 1016.6 hPa | - | - | 0 W/m² | - |
| 1777457779 | 2.22° C | 77% | 1016.5 hPa | - | - | 0 W/m² | - |
| 1777457479 | 2.22° C | 77% | 1016.1 hPa | - | - | 0 W/m² | - |
| 1777457175 | 2.22° C | 76% | 1016.1 hPa | - | - | 0 W/m² | - |
| 1777456871 | 2.78° C | 76% | 1016.1 hPa | - | - | 0 W/m² | - |
| 1777456566 | 2.22° C | 75% | 1016.1 hPa | - | - | 0 W/m² | - |
| 1777456261 | 2.78° C | 75% | 1016.1 hPa | - | - | 0 W/m² | - |
| 1777455957 | 2.78° C | 75% | 1016 hPa | - | - | 0 W/m² | - |
| 1777455655 | 2.78° C | 76% | 1015.8 hPa | - | - | 0 W/m² | - |
| 1777455351 | 2.78° C | 76% | 1016 hPa | - | - | 0 W/m² | - |
* Rain since midnight (hover to see other rain measurements)
** Current wind speed in m/s (hover to see current wind gust speed)